Baton Rouge, LA

11:39 PM CST on November 22, 2017 (GMT -0600)
Baton Rouge Metro-Ryan

Weather History for KBTR - September, 2013

Change the Weather History Date:

Tuesday, September 17, 2013

  Actual Average Record
Temperature  
Mean Temperature 84 °F 78 °F  
Max Temperature 94 °F 89 °F 98 °F (1927)
Min Temperature 73 °F 68 °F 55 °F (1961)
Degree Days  
Heating Degree Days 0 0  
Month to date heating degree days 0 0  
Since 1 July heating degree days 0 0  
Cooling Degree Days 19 13  
Month to date cooling degree days 303 261  
Year to date cooling degree days 2271 2422  
Growing Degree Days 33 (Base 50)    
Moisture  
Dew Point 71 °F    
Average Humidity 66    
Maximum Humidity 93    
Minimum Humidity 39    
Precipitation  
Precipitation 0.00 in 0.14 in 2.82 in (1942)
Month to date precipitation 1.88 2.70  
Year to date precipitation 54.54 44.41  
Snow  
Snow 0.00 in - - ()
Month to date snowfall 0.0  
Since 1 July snowfall 0.0  
Since 1 September snowfall 0.0  
Snow Depth 0.00 in    
Sea Level Pressure  
Sea Level Pressure 30.02 in    
Wind  
Wind Speed 6 mph (East)    
Max Wind Speed 13 mph    
Max Gust Speed 25 mph    
Visibility 9 miles    
Events      
T = Trace of Precipitation, MM = Missing Value Source: NWS Daily Summary

Daily Weather History Graph

Daily Weather History Graph

Search for Another Location

Airport or City:

Trip Planner

Search our weather history database for the weather conditions in past years. The results will help you decide how hot, cold, wet, or windy it might be!

Date:

Astronomy

Sep. 17, 2013 Rise Set
Actual Time 6:50 AM CDT 7:07 PM CDT
Civil Twilight 6:26 AM CDT 7:31 PM CDT
Nautical Twilight 5:58 AM CDT 7:59 PM CDT
Astronomical Twilight 5:29 AM CDT 8:27 PM CDT
Moon 5:51 PM CDT (9/17) 4:51 AM CDT (9/17)
Length of Visible Light 13h 05m
Length of Day
12h 16m
Waxing Gibbous, 96% of the Moon is Illuminated
Sep 17
Waxing Gibbous
Sep 19
Full
Sep 26
Last Quarter
Oct 4
New
Oct 11
First Quarter

Hourly Weather History & Observations

Time (CDT) Temp. Heat Index Dew Point Humidity Pressure Visibility Wind Dir Wind Speed Gust Speed Precip Events Conditions
12:53 AM 73.9 °F - 71.1 °F 91% 30.04 in 9.0 mi Calm Calm - N/A   Clear
1:53 AM 73.0 °F - 71.1 °F 93% 30.04 in 8.0 mi Calm Calm - N/A   Clear
2:53 AM 73.9 °F - 71.1 °F 91% 30.04 in 8.0 mi NNE 3.5 mph - N/A   Clear
3:53 AM 73.0 °F - 71.1 °F 93% 30.03 in 7.0 mi Calm Calm - N/A   Clear
4:53 AM 73.0 °F - 71.1 °F 93% 30.03 in 4.0 mi NNE 3.5 mph - N/A   Clear
5:53 AM 73.0 °F - 71.1 °F 93% 30.03 in 7.0 mi Calm Calm - N/A   Clear
6:53 AM 73.0 °F - 71.1 °F 93% 30.04 in 7.0 mi Calm Calm - N/A   Clear
7:53 AM 73.9 °F - 72.0 °F 93% 30.06 in 7.0 mi ENE 3.5 mph - N/A   Clear
8:53 AM 80.1 °F 84.2 °F 73.0 °F 79% 30.07 in 10.0 mi NNE 3.5 mph - N/A   Clear
9:53 AM 84.9 °F 90.7 °F 72.0 °F 65% 30.08 in 10.0 mi ENE 5.8 mph - N/A   Clear
10:53 AM 88.0 °F 93.8 °F 71.1 °F 57% 30.08 in 10.0 mi East 11.5 mph - N/A   Clear
11:53 AM 90.0 °F 96.4 °F 71.1 °F 54% 30.07 in 10.0 mi East 11.5 mph - N/A   Clear
12:53 PM 91.9 °F 99.5 °F 72.0 °F 52% 30.05 in 10.0 mi ESE 9.2 mph - N/A   Scattered Clouds
1:53 PM 91.9 °F 95.9 °F 68.0 °F 45% 30.01 in 10.0 mi ESE 9.2 mph - N/A   Scattered Clouds
2:53 PM 93.0 °F 97.4 °F 68.0 °F 44% 29.99 in 10.0 mi SE 6.9 mph - N/A   Partly Cloudy
3:53 PM 93.0 °F 95.9 °F 66.0 °F 41% 29.97 in 10.0 mi ENE 8.1 mph - N/A   Scattered Clouds
4:53 PM 93.0 °F 95.0 °F 64.9 °F 39% 29.95 in 10.0 mi ENE 6.9 mph - N/A   Partly Cloudy
5:53 PM - - - N/A% 29.95 in - North - - N/A   Partly Cloudy
6:53 PM - - - N/A% 29.97 in - North - - N/A   Unknown
7:53 PM - - - N/A% 29.98 in 10.0 mi SE 12.7 mph - N/A   Clear
8:53 PM 80.6 °F 86.2 °F 75.2 °F 84% 29.99 in 10.0 mi SE 9.2 mph - N/A   Clear
9:53 PM 80.6 °F 85.4 °F 73.4 °F 79% 30.01 in 10.0 mi ESE 8.1 mph - N/A   Clear
10:53 PM - - - N/A% 30.02 in - North - - N/A   Unknown
11:53 PM - - - N/A% 30.01 in - North - - N/A   Unknown